Showing default

LEMUR-2-STAS-GORBUK, 66686

Orbit data source: Space-Track

LEMUR-2-STAS-GORBUK, 66686 is a payload satellite owned by Spire (US) in SSO that was launched on Fri, 28 Nov 2025 UTC via an FALCON 9 launch vehicle from the Air Force Western Test Range (AFWTR). Payload-class satellites include a variety of spacecraft equipped with specific instruments for various scientific and technological missions. These include communications satellites like Starlink; space stations such as the ISS; scientific satellites like the Hubble; Earth observation satellites from companies like Planet Labs, Umbra, and HawkEye 360; GPS; miniature CubeSats for education and research; and military/defense satellites.

Loading next visibility...
Identifier
66686, 2025-276W
Orbit
SSO
Country
Flag of USUS
Related business
Manufacturer
Spire/Glasgow
Mission
Operational Commercial Com/MetRO
Bus & Motor
CUBESAT 3U, Unknown motor
Mass
7.6 kg wet, 7.6 kg dry
Launch date (UTC)
2025-11-28 (4 months ago)
Launch vehicle
FALCON 9
Launch site
Air Force Western Test Range (AFWTR)
Object type
Payload
Rocket body
Debris
Shape & HBR
Box + 2 Pan, 0.5 m
Radar Cross Section
0.063 m²

Expand to show TLE details & history
Last TLE update: 13 hours ago

TLE from 13 hours ago
0 LEMUR-2-STAS-GORBUK
1 66686U 25276W   26095.27291052  .00008581  00000-0  41782-3 0  9991
2 66686  97.4282 170.0515 0003919 238.6443 121.4408 15.18601429 19341
Epoch: 2026-04-05T06:32Z
TLE epoch observation values (Epoch: 2026-04-05T06:32:59.468Z)
Latitude
-0.00006°
Longitude
-121.77698°
Altitude
514.564 km
Speed
7.606 km/s
True Right ascension
11h 20m 12s
True Declination
0° 00' 00"
Sunlit
Object was in full shadow at epoch
Visualization orbit readout
Latitude
Unknown
Longitude
Unknown
Altitude
Unknown
Speed
Unknown
Apparent Right ascension
Unknown
Apparent Declination
Unknown
Sunlit
N/A
Visualization observer readout
Local Sidereal Time
01:54:23
Azimuth
Unknown
Elevation
Unknown
Doppler factor
Unknown
Orbital elements
Apogee altitude
509.733 km
Perigee altitude
504.337 km
Semi-major axis
6,885.172 km
Eccentricity
0.00039
Inclination
97.4282°
RAAN
170.0515°
Arg. of periapsis
238.6443°
True anomaly
121.47911°
Mean anomaly
121.4408°
Eccentric anomaly
121.45995°
Mean motion
3.79901 °/min
Orbital period
94.76 mins
BSTAR
0.00041782
Loading maneuver chart data...
Computing Atmospheric mass density...
Loading historical data...
Loading historical data...
Loading historical data...
Loading historical data...
Loading historical data...
Loading historical data...
Loading historical data...

Documentation

Showing up to 5 results
|